sat.trackr.live / text

‹ back to catalog

STARLINK-37069

NORAD 68158 · 2026-049S

PAYLOAD ACTIVE UNKNOWN

§ Identity

Operator
Country
US
Launch date
2026-03-13
Launch site
AFWTR
Launch vehicle
Mass (kg)
RCS (m²)

Purposes: comms

External: N2YO · Heavens-Above · Gunter

§ Orbital elements

Epoch: 2026-05-25T00:50:39.444000Z

Period
93.91 min
Inclination
97.2838°
Eccentricity
0.0001455
Mean motion
15.33448404 rev/d
Perigee alt
464.5 km
Apogee alt
466.5 km
Semi-major
6,843.7 km
B*
3.0412e-4
RAAN
166.6354°
Arg perigee
96.8017°
Mean anomaly
263.3391°
Rev number
1,134

§ Raw data

STARLINK-370691 68158U 26049S   26145.03517875  .00009757  00000+0  30412-3 0  99932 68158  97.2838 166.6354 0001455  96.8017 263.3391 15.33448404 11346

JSON: /api/v1/satellites/68158 · /tle

For live sub-satellite position, see the globe view (requires WebGL).

§ Visibility from observer

Set your observer location to see the next 7 days of passes ≥ 10°. The values pass through the URL so the page stays shareable.

No JS? Fill the form by hand. The geolocation button needs JavaScript.